Terminal Aerodrome Forecast
Issued by NWS Sterling, VA

Current Version | Previous Version | Graphics & Text | Print | Product List | Glossary On
Versions: 1 2 3 4 5 6 7 8 9 10 11 12 13 14 15 16 17 18 19 20 21 22 23 24 25
000
FTUS41 KLWX 280532
TAFDCA
TAF
KDCA 280532Z 2806/2906 27004KT P6SM OVC005
     FM280700 29004KT P6SM OVC008
     FM280800 27007KT P6SM BKN050
     FM281100 26005KT P6SM SCT250
     FM281700 25009KT P6SM SCT060
     FM281800 26015G24KT P6SM BKN050
     FM282200 28015KT P6SM SCT060
     FM290200 29009KT P6SM FEW250=

USA.gov is the U.S. government's official web portal to all federal, state and local government web resources and services.